Temp
45 44 44 45 46 48 52 55 58 59 63 66 68 69 71 69 66 62 62 59 57 55
45 45 45 46 47 48 49 53 54 56 58 61 64 68 68 66 64 61 60 59 58 57
45 45 46 47 48 48 48 48 49 51 54 57 59 66 65 63 62 60 56 55 54 52
46 46 46 46 48 49 50 49 49 49 50 53 56 63 63 61 60 58 56 55 54 53
47 47 46 45 47 47 48 49 49 49 49 51 54 61 62 60 60 58 55 54 54 54
45 46 45 45 46 46 47 48 49 49 49 50 53 57 63 62 59 58 57 56 55 54
45 45 45 45 45 45 46 46 48 49 49 50 53 56 62 61 60 60 59 57 56 55
46 46 45 44 43 43 44 45 47 49 50 50 52 56 62 61 60 59 57 57 57 56
46 45 43 42 41 41 43 44 47 48 49 49 53 54 56 61 60 59 56 54 55 55
45 43 41 40 40 40 45 46 49 50 49 49 52 54 52 56 58 56 55 54 53 54
44 43 41 38 38 39 40 41 42 45 49 51 55 51 50 52 56 54 54 53 55 54
43 42 40 38 36 37 37 36 37 40 41 42 46 48 49 52 52 50 49 49 49 48
43 42 39 39 38 37 36 36 37 37 36 39 40 43 46 50 49 45 43 44 44 45
43 42 40 39 38 38 36 36 35 35 35 35 36 39 41 44 45 43 42 41 40 41
MSLP
1021.65 1021.13 1020.51 1019.66 1018.62 1017.40 1016.20 1015.02 1013.92 1013.07 1012.29 1011.95 1011.35 1010.54 1010.20 1010.33 1010.32 1010.74 1011.51 1011.69 1012.44 1013.25
1021.61 1020.94 1020.08 1019.26 1018.39 1017.25 1016.25 1015.11 1014.30 1013.42 1012.46 1011.87 1011.03 1009.97 1009.66 1009.66 1009.77 1010.00 1010.84 1011.02 1011.57 1011.34
1021.08 1020.50 1019.65 1018.67 1017.62 1016.84 1015.90 1015.03 1014.00 1013.30 1012.53 1011.62 1010.64 1009.33 1008.59 1008.51 1008.91 1009.70 1010.20 1010.89 1011.87 1012.30
1020.80 1019.70 1018.85 1018.06 1016.96 1016.06 1015.10 1014.41 1013.47 1012.52 1011.81 1011.11 1010.29 1009.01 1007.62 1007.49 1008.07 1008.64 1009.31 1010.13 1011.31 1012.20
1020.89 1019.89 1018.75 1017.49 1016.26 1015.27 1014.03 1013.19 1012.58 1011.65 1010.70 1009.97 1009.28 1008.23 1006.55 1006.40 1006.75 1007.33 1008.13 1008.52 1009.33 1010.48
1019.99 1018.92 1017.96 1016.89 1015.72 1014.49 1013.23 1011.91 1010.89 1010.34 1009.53 1008.72 1008.00 1007.06 1005.56 1004.97 1005.45 1005.32 1006.77 1007.44 1008.70 1009.96
1019.59 1018.59 1017.39 1016.21 1014.97 1013.58 1012.44 1011.11 1009.72 1008.60 1007.91 1007.34 1006.58 1005.94 1004.51 1003.99 1004.10 1004.53 1005.47 1006.71 1007.97 1009.22
1019.15 1017.99 1016.72 1015.44 1014.31 1012.97 1011.46 1009.85 1008.42 1006.88 1006.10 1005.67 1004.94 1004.08 1003.07 1002.73 1003.01 1003.52 1004.57 1005.81 1007.12 1007.57
1018.89 1017.55 1016.27 1015.04 1013.69 1012.04 1010.20 1008.38 1006.38 1004.88 1004.18 1003.78 1003.09 1002.14 1001.39 1001.23 1001.80 1002.42 1003.63 1004.63 1006.05 1007.11
1019.18 1017.81 1016.63 1015.43 1013.81 1011.96 1009.63 1007.45 1004.84 1003.06 1002.67 1002.09 1001.39 1000.48 1000.03 1000.29 1000.84 1001.58 1002.81 1003.57 1005.52 1006.84
1019.47 1018.18 1017.05 1015.84 1014.24 1012.58 1010.79 1008.71 1006.76 1004.49 1002.51 1001.12 999.81 999.03 999.32 1000.07 1000.57 1001.40 1002.37 1003.39 1004.88 1006.62
1019.79 1018.66 1017.55 1016.57 1015.01 1013.41 1011.98 1010.11 1008.68 1007.04 1004.33 1002.50 1000.92 999.50 999.53 1000.25 1001.29 1001.73 1002.73 1004.19 1005.33 1007.33
1020.31 1019.53 1018.45 1017.28 1015.91 1014.24 1012.97 1011.80 1010.45 1009.00 1007.01 1005.17 1003.90 1002.36 1001.22 1000.52 1001.53 1002.53 1003.07 1005.64 1006.35 1007.93
1020.50 1019.79 1018.85 1018.10 1016.57 1015.01 1014.14 1013.49 1012.24 1010.76 1009.00 1007.72 1006.80 1005.51 1005.20 1003.61 1003.72 1004.12 1005.16 1005.87 1008.08 1009.08
Wind_Speed
11 8 9 10 12 12 12 12 16 14 14 13 14 12 10 9 7 10 9 12 8 7
13 14 12 14 13 12 15 14 16 17 16 14 16 16 12 9 11 10 10 10 11 9
17 16 15 14 16 16 16 17 17 17 17 16 15 19 14 10 8 10 7 6 7 5
20 21 17 16 16 16 18 20 20 19 17 17 16 19 14 13 13 12 11 10 9 6
18 18 20 20 20 20 19 17 21 20 20 18 17 18 16 16 15 14 15 17 19 20
18 20 21 21 22 20 20 20 20 21 20 19 18 17 18 18 17 19 18 18 16 13
18 18 21 20 22 23 20 20 21 20 21 21 19 18 18 18 19 18 16 16 15 14
19 19 19 18 21 20 22 21 22 22 22 21 19 14 21 20 19 18 16 17 16 15
22 22 21 20 21 21 22 22 22 21 20 21 15 22 25 22 19 18 18 16 14 14
21 21 21 21 20 24 22 23 23 15 16 19 18 25 21 25 17 17 17 18 15 14
18 20 20 20 20 21 22 23 21 20 13 15 15 18 20 18 14 14 16 17 17 14
15 19 19 19 19 19 19 19 21 20 22 23 18 8 21 18 13 16 15 14 17 13
12 15 16 17 16 17 18 20 17 20 21 30 23 32 9 16 12 17 15 14 18 23
9 11 14 14 15 17 18 19 19 19 20 23 24 25 32 16 12 12 13 13 11 9
Wind_Direction
327 319 309 305 306 299 300 300 305 301 299 287 279 270 247 231 195 172 187 174 191 154
328 320 313 306 300 300 299 298 299 300 292 287 288 258 228 221 204 179 183 186 189 183
327 322 314 308 310 303 297 295 297 295 290 286 282 266 212 202 188 174 152 137 136 105
326 322 318 310 307 305 303 298 294 292 289 286 279 273 203 184 174 167 153 140 142 171
326 322 316 313 307 306 301 295 293 289 286 281 278 278 203 180 180 174 167 171 173 184
322 325 323 316 310 303 298 297 293 285 278 278 278 280 216 187 186 174 185 179 180 180
330 324 320 314 311 308 298 291 287 278 273 271 266 265 231 198 190 190 189 176 169 168
335 331 322 316 315 307 301 293 282 274 272 264 257 252 244 200 192 182 172 170 172 164
342 336 335 329 323 318 309 295 283 269 264 260 254 256 222 199 198 188 175 163 161 152
345 342 342 336 336 335 334 332 325 274 257 257 253 254 195 192 188 178 170 150 156 148
342 347 349 347 348 355 347 352 352 354 324 264 254 203 178 178 172 155 151 142 139 135
343 347 352 354 358 357 357 357 358 355 12 11 359 191 149 144 146 126 117 117 111 110
340 349 355 359 3 8 5 3 1 4 12 16 16 14 19 132 125 117 107 94 94 103
339 350 4 356 3 15 13 2 2 4 12 16 15 24 22 46 103 98 92 108 107 100